Location: Fort Collins
(40.5850°N, 105.0840°W)
Time: 18:11:49
(UTC-07:00)

Daily predictions for brighter satellites

Satellite Brightness Start Highest point End
(mag) Time Altitude Azimuth Time Altitude Azimuth Time Altitude Azimuth
IDEFIX/ARIANE 42P 2.8 17:27:55 10° S 17:33:08 80° W 17:38:24 10° NNW
Cosmos 540 Rocket 3.5 17:28:29 10° SSW 17:33:39 88° ESE 17:38:51 10° NNE
Cosmos 1515 Rocket 4.0 17:31:27 10° NNW 17:35:54 72° W 17:40:18 10° S
Cosmos 2058 3.1 17:33:27 10° S 17:37:25 50° E 17:41:23 10° NNE
CORIOLIS 4.2 17:33:45 10° SSE 17:39:06 87° ENE 17:44:30 10° NNW
Cosmos 1805 Rocket 4.2 17:38:00 10° SSE 17:42:01 34° E 17:46:04 10° NNE
Lacrosse 5 4.0 17:41:00 10° NNW 17:43:04 12° N 17:45:09 10° NNE
Cosmos 1461 3.0 17:39:40 10° SSW 17:43:47 56° ESE 17:47:47 10° NE
Cosmos 1980 4.1 17:38:12 10° SSW 17:43:50 68° WNW 17:49:30 10° NNE
SKYMED 2 4.0 17:40:59 10° NNE 17:45:08 43° E 17:49:16 10° S
USA 215 4.0 17:42:14 10° E 17:48:02 35° NNE 17:53:50 10° NW
Cosmos 1626 3.1 17:45:29 10° SSE 17:48:41 27° E 17:51:54 10° NNE
Cosmos 1500 Rocket 4.4 17:44:29 10° SSW 17:48:43 53° W 17:53:01 10° N
CZ-4 R/B 4.4 17:44:55 10° SSE 17:49:04 89° ENE 17:53:13 10° NNW
Sich 1 3.9 17:51:03 10° SSE 17:54:56 30° E 17:58:49 10° NNE
BREEZE-M DEB (TANK) 1.9 17:52:02 10° WSW 17:55:01 50° NNW 17:56:48 13° NE
Cosmos 44 4.5 17:50:30 10° SW 17:55:30 44° NW 18:00:18 10° NNE
Meteor 1-11 4.3 17:50:17 10° S 17:55:58 83° E 18:01:46 10° N
Lacrosse 5 rocket 2.0 17:52:23 10° NW 17:56:07 55° SW 18:00:01 10° SSE
Cosmos 1356 Rocket 3.9 17:53:46 10° SSE 17:57:25 35° E 18:01:05 10° NNE
Cosmos 2180 Rocket 4.5 17:51:36 10° N 17:57:42 62° E 18:03:51 10° SSE
CZ-2C R/B 3.8 17:54:42 10° S 17:59:24 43° W 18:04:00 10° NNW
Cosmos 2219 Rocket 3.8 17:55:45 10° WSW 18:00:48 33° WNW 18:05:52 10° N
ALOS 3.6 17:59:55 10° ESE 18:03:05 18° ENE 18:06:14 10° NNE
Cosmos 1726 3.4 17:59:35 10° NNW 18:03:12 46° W 18:06:49 10° SSW
Coronas F rocket 3.0 18:02:58 10° SE 18:03:53 15° ESE 18:03:53 15° ESE
Cosmos 1633 Rocket 3.7 18:01:22 10° SSE 18:05:21 34° E 18:09:20 10° NNE
Cosmos 2333 Rocket 3.6 18:02:41 10° SW 18:07:53 37° WNW 18:13:07 10° N
Cosmos 1455 2.6 18:07:39 10° N 18:11:15 39° ENE 18:14:50 10° SSE
Abrixas 4.0 18:10:16 10° WNW 18:12:49 26° NNW 18:14:25 17° NNE
Cosmos 2278 Rocket 3.6 18:10:20 10° NW 18:15:40 42° WSW 18:20:57 10° S
Cosmos 1184 Rocket 3.0 18:16:20 10° S 18:19:33 47° E 18:22:06 15° NNE
Cosmos 1703 3.2 18:16:19 10° S 18:20:12 84° W 18:24:07 10° N
CZ-4 R/B 4.5 18:20:52 10° SW 18:23:30 17° W 18:26:10 10° NW
SJ-6B 3.1 18:20:38 10° SE 18:24:32 46° ENE 18:28:31 10° N
USA 229 DEB 3.8 18:22:29 10° SSW 18:29:10 60° ESE 18:34:38 17° NE
USA 229 3.8 18:22:35 10° SSW 18:29:16 60° ESE 18:34:42 17° NE
Spot 2 Rocket 4.1 18:25:19 10° SE 18:29:43 31° ENE 18:34:08 10° N
Cosmos 1707 Rocket 3.5 18:27:03 10° N 18:31:23 85° W 18:35:44 10° S
Iridium 4 Rocket 3.4 18:28:43 10° SSE 18:32:55 42° E 18:36:55 10° NNE
COSMO-SKYMED 1 3.3 18:28:56 10° N 18:33:11 53° WNW 18:37:23 10° SSW
Cosmos 2237 Rocket 4.0 18:34:31 10° WSW 18:39:16 28° NW 18:44:05 10° N
FREGAT/IRIS 2.5 18:37:00 10° SSE 18:40:01 67° ENE 18:43:05 10° N
Cosmos 1666 Rocket 3.7 18:37:08 10° SSW 18:41:27 74° W 18:45:52 10° N
SL-19 R/B 4.4 18:37:13 10° SE 18:42:53 55° ENE 18:48:19 10° N
Cosmos 2369 Rocket 3.2 18:38:41 10° N 18:42:51 25° NE 18:42:51 25° NE
SL-16 R/B 3.0 18:41:59 10° SW 18:47:29 52° WNW 18:53:01 10° NNE
Resurs 01 Rocket 1.8 18:49:46 30° SE 18:51:35 48° ENE 18:55:53 10° N
Cosmos 1933 Rocket 3.6 18:48:42 10° S 18:53:00 53° E 18:53:46 46° ENE
Cosmos 923 Rocket 3.9 18:49:22 10° S 18:54:32 71° ESE 18:57:25 27° NNE
TIMED 4.4 18:53:12 10° NNW 18:57:36 89° W 19:01:58 10° SSE
Lacrosse 4 Rocket 1.2 18:56:27 10° NNW 19:00:31 89° WSW 19:01:45 44° SSE
Cosmos 1680 Rocket 3.4 18:55:48 10° S 19:00:56 62° ESE 19:02:30 42° NE
Tiangong 1 2.8 18:58:40 10° SW 19:00:16 24° SSW 19:00:16 24° SSW
Cosmos 1869 3.6 19:02:09 10° NNW 19:06:11 69° W 19:10:12 10° S
Cosmos 1655 Rocket 4.1 19:01:09 10° SSE 19:07:14 49° E 19:09:16 36° NE
CZ-4C R/B 4.2 19:04:20 10° NNW 19:08:40 19° NNE 19:08:40 19° NNE
Cosmos 1627 Rocket 4.3 19:03:14 10° S 19:09:20 67° E 19:15:25 10° NNE
FENGYUN 3A 3.5 19:06:28 10° SSE 19:11:49 83° ENE 19:17:14 10° NNW
Cosmos 1470 Rocket 3.5 19:10:10 10° S 19:14:31 80° W 19:15:28 54° N
NOSS 3-1 (C) 3.5 19:15:14 10° SSW 19:20:20 51° SE 19:20:20 51° SE
Cosmos 1943 3.7 19:19:43 10° S 19:23:49 44° SSE 19:23:49 44° SSE
Lacrosse 5 4.0 19:24:43 10° NNW 19:26:32 15° N 19:26:32 15° N
USA 215 3.2 19:28:14 44° SE 19:30:36 85° SW 19:37:12 10° NW
ATLAS 5 CENTAUR R/B 3.8 19:26:10 10° NNW 19:28:57 22° N 19:28:57 22° N
ATLAS 3B R/B 4.5 19:30:18 10° N 19:33:09 15° NNE 19:33:09 15° NNE
Cosmos 2026 Rocket 3.9 19:30:06 10° S 19:36:19 84° W 19:40:53 19° N
Cosmos 2112 Rocket 4.1 19:32:17 10° SSW 19:37:29 72° WNW 19:37:38 72° NW
ALOS 3.2 19:35:40 10° S 19:40:09 47° W 19:44:39 10° NNW
Cosmos 1943 Rocket 4.2 19:43:14 10° N 19:44:17 15° N 19:44:17 15° N
Cosmos 2369 Rocket 4.0 20:22:09 10° NW 20:24:42 26° NW 20:24:42 26° NW
Resurs 01 Rocket 4.4 20:27:17 14° WSW 20:28:19 15° W 20:30:55 10° NW
